Rockford, IL

11:25 AM CDT on April 23, 2018 (GMT -0500)
Greater Rockford

Weather History for KRFD - April, 2014

Change the Weather History Date:

Monday, April 7, 2014

  Actual Average Record
Temperature  
Mean Temperature 49 °F 46 °F  
Max Temperature 61 °F 57 °F 85 °F (1893)
Min Temperature 37 °F 35 °F 5 °F (1982)
Degree Days  
Heating Degree Days 16 19  
Month to date heating degree days 159 141  
Since 1 July heating degree days 7143 6005  
Cooling Degree Days 0 0  
Month to date cooling degree days 0 0  
Year to date cooling degree days 0 0  
Moisture  
Dew Point 32 °F    
Average Humidity 56    
Maximum Humidity 86    
Minimum Humidity 25    
Precipitation  
Precipitation 0.01 in 0.12 in 1.65 in (1954)
Month to date precipitation 0.03 0.75  
Year to date precipitation 4.80 5.85  
Snow  
Snow 0.00 in 0.00 in 2.50 in (1972)
Month to date snowfall 0.0 0.4  
Since 1 July snowfall 56.6 36.2  
Snow Depth 0.00 in    
Sea Level Pressure  
Sea Level Pressure 29.77 in    
Wind  
Wind Speed 6 mph (NE)    
Max Wind Speed 20 mph    
Max Gust Speed 26 mph    
Visibility 10 miles    
Events Rain    
T = Trace of Precipitation, MM = Missing Value Source: NWS Daily Summary

Daily Weather History Graph

Daily Weather History Graph

Search for Another Location

Airport or City:

Astronomy

Apr. 07, 2014 Rise Set
Actual Time 6:28 AM CDT 7:28 PM CDT
Civil Twilight 6:00 AM CDT 7:57 PM CDT
Nautical Twilight 5:26 AM CDT 8:31 PM CDT
Astronomical Twilight 4:50 AM CDT 9:07 PM CDT
Moon 12:21 PM CDT (4/7) 2:09 AM CDT (4/7)
Length of Visible Light 13h 57m
Length of Day
13h 00m
First Quarter, 53% of the Moon is Illuminated
Apr 7
First Quarter
Apr 15
Full
Apr 22
Last Quarter
Apr 29
New
May 6
First Quarter

Hourly Weather History & Observations

Time (CDT) Temp. Windchill Dew Point Humidity Pressure Visibility Wind Dir Wind Speed Gust Speed Precip Events Conditions
12:54 AM 43.0 °F - 32.0 °F 65% 29.95 in 10.0 mi Calm Calm - N/A   Overcast
1:54 AM 41.0 °F - 32.0 °F 70% 29.93 in 10.0 mi Calm Calm - N/A   Mostly Cloudy
2:54 AM 39.9 °F 36.7 °F 32.0 °F 73% 29.90 in 10.0 mi ENE 4.6 mph - N/A   Mostly Cloudy
3:54 AM 39.0 °F 36.8 °F 30.9 °F 73% 29.87 in 10.0 mi SSE 3.5 mph - N/A   Overcast
4:54 AM 39.0 °F 36.8 °F 32.0 °F 76% 29.85 in 10.0 mi NE 3.5 mph - N/A   Overcast
5:54 AM 37.9 °F 35.5 °F 33.1 °F 83% 29.86 in 10.0 mi NE 3.5 mph - N/A   Overcast
6:54 AM 37.9 °F - 33.1 °F 83% 29.90 in 10.0 mi Calm Calm - N/A   Overcast
7:54 AM 42.1 °F 40.2 °F 35.1 °F 76% 29.88 in 10.0 mi North 3.5 mph - N/A   Overcast
8:54 AM 46.9 °F - 33.1 °F 59% 29.84 in 10.0 mi SE 3.5 mph - N/A   Overcast
9:54 AM 51.1 °F - 32.0 °F 48% 29.82 in 10.0 mi East 5.8 mph - N/A   Overcast
10:54 AM 55.9 °F - 30.0 °F 37% 29.79 in 10.0 mi NE 12.7 mph - N/A   Overcast
11:54 AM 59.0 °F - 28.9 °F 32% 29.74 in 10.0 mi NNE 10.4 mph - N/A   Mostly Cloudy
12:54 PM 60.1 °F - 25.0 °F 26% 29.71 in 10.0 mi NE 12.7 mph 23.0 mph N/A   Overcast
1:54 PM 61.0 °F - 28.0 °F 29% 29.69 in 10.0 mi NNE 13.8 mph - N/A   Overcast
2:54 PM 60.8 °F - 28.4 °F 29% 29.68 in 10.0 mi ENE 10.4 mph - N/A   Overcast
3:54 PM 61.0 °F - 28.0 °F 29% 29.66 in 10.0 mi ESE 6.9 mph - N/A   Overcast
4:54 PM 60.1 °F - 28.9 °F 31% 29.65 in 10.0 mi ENE 6.9 mph - N/A   Overcast
5:54 PM 59.0 °F - 28.0 °F 31% 29.65 in 10.0 mi East 4.6 mph - N/A   Overcast
6:54 PM 55.0 °F - 28.0 °F 35% 29.65 in 10.0 mi ESE 6.9 mph - N/A   Overcast
7:54 PM 53.1 °F - 30.9 °F 43% 29.66 in 10.0 mi Calm Calm - N/A   Overcast
8:54 PM 51.1 °F - 42.1 °F 71% 29.68 in 10.0 mi NW 3.5 mph - 0.00 in   Overcast
9:54 PM 51.1 °F - 43.0 °F 74% 29.69 in 8.0 mi North 6.9 mph - 0.01 in Rain Light Rain
10:54 PM 48.9 °F - 44.1 °F 83% 29.68 in 10.0 mi North 6.9 mph - 0.00 in Rain Light Rain
11:54 PM 48.9 °F - 44.1 °F 83% 29.69 in 10.0 mi NNW 6.9 mph - 0.00 in   Overcast